GOES 1 [-]

Last updated on Sun Nov 20 2016 17:18:59 GMT+0000 (Coordinated Universal Time)

1 08366U 75100A 16325.25192436 -.00000156 00000-0 00000+0 0 9997 2 08366 12.3733 320.9953 0007170 266.6110 182.5588 1.00316687150153

Satellite not in orbit

GOES 1 [-]